Kendall, FL

4:15 PM EDT on June 27, 2017 (GMT -0400)
Kendall-Tamiami Executive

Weather History for KTMB - February, 2013

Change the Weather History Date:

Tuesday, February 5, 2013

  Actual Average Record
Temperature  
Mean Temperature 66 °F -  
Max Temperature 78 °F 77 °F 86 °F (1990)
Min Temperature 54 °F 58 °F 36 °F (2009)
Cooling Degree Days 1    
Growing Degree Days 16 (Base 50)    
Moisture  
Dew Point 58 °F    
Average Humidity 75    
Maximum Humidity 93    
Minimum Humidity 52    
Precipitation  
Precipitation 0.00 in - - ()
Sea Level Pressure  
Sea Level Pressure 30.05 in    
Wind  
Wind Speed 2 mph (ESE)    
Max Wind Speed 9 mph    
Max Gust Speed -    
Visibility 10 miles    
Events      
Averages and records for this station are not official NWS values.
T = Trace of Precipitation, MM = Missing Value Source: NWS Daily Summary

Daily Weather History Graph

Daily Weather History Graph

Search for Another Location

Airport or City:

Trip Planner

Search our weather history database for the weather conditions in past years. The results will help you decide how hot, cold, wet, or windy it might be!

Date:

Astronomy

Feb. 05, 2013 Rise Set
Actual Time 7:03 AM EST 6:08 PM EST
Civil Twilight 6:39 AM EST 6:32 PM EST
Nautical Twilight 6:11 AM EST 6:59 PM EST
Astronomical Twilight 5:44 AM EST 7:27 PM EST
Moon 2:33 AM EST (2/5) 1:35 PM EST (2/5)
Length of Visible Light 11h 53m
Length of Day
11h 05m
Waning Crescent, 27% of the Moon is Illuminated
Feb 5
Waning Crescent
Feb 10
New
Feb 17
First Quarter
Feb 25
Full
Mar 4
Last Quarter

Hourly Weather History & Observations

Time (EST) Temp. Dew Point Humidity Pressure Visibility Wind Dir Wind Speed Gust Speed Precip Events Conditions
12:53 AM 55.9 °F 52.0 °F 87% 30.08 in 10.0 mi Calm Calm - N/A   Clear
1:53 AM 54.0 °F 51.1 °F 90% 30.06 in 10.0 mi Calm Calm - N/A   Clear
2:53 AM 54.0 °F 51.1 °F 90% 30.05 in 10.0 mi Calm Calm - N/A   Clear
3:53 AM 55.0 °F 53.1 °F 93% 30.05 in 10.0 mi Calm Calm - N/A   Scattered Clouds
4:53 AM 55.0 °F 53.1 °F 93% 30.04 in 10.0 mi Calm Calm - N/A   Clear
5:53 AM 57.0 °F 54.0 °F 89% 30.05 in 10.0 mi Calm Calm - N/A   Clear
6:53 AM 55.9 °F 53.1 °F 90% 30.05 in 10.0 mi East 3.5 mph - N/A   Clear
7:53 AM 60.1 °F 55.9 °F 86% 30.07 in 10.0 mi Calm Calm - N/A   Clear
8:53 AM 68.0 °F 55.0 °F 63% 30.09 in 10.0 mi NE 4.6 mph - N/A   Clear
9:53 AM 73.0 °F 55.9 °F 55% 30.09 in 10.0 mi NE 4.6 mph - N/A   Clear
10:53 AM 75.9 °F 59.0 °F 56% 30.09 in 10.0 mi East 6.9 mph - N/A   Clear
11:53 AM 75.9 °F 59.0 °F 56% 30.08 in 10.0 mi SE 6.9 mph - N/A   Scattered Clouds
12:53 PM 78.1 °F 59.0 °F 52% 30.06 in 10.0 mi Variable 6.9 mph - N/A   Scattered Clouds
1:53 PM 77.0 °F 57.9 °F 52% 30.03 in 10.0 mi SSW 8.1 mph - N/A   Overcast
2:53 PM 75.9 °F 60.1 °F 58% 30.03 in 10.0 mi SE 8.1 mph - N/A   Overcast
3:53 PM 77.0 °F 61.0 °F 58% 30.02 in 10.0 mi ESE 9.2 mph - N/A   Scattered Clouds
4:53 PM 73.9 °F 62.1 °F 66% 30.02 in 10.0 mi SSE 6.9 mph - N/A   Overcast
5:53 PM 73.0 °F 62.1 °F 68% 30.02 in 10.0 mi ESE 6.9 mph - 0.00 in   Partly Cloudy
6:53 PM 71.1 °F 62.1 °F 73% 30.03 in 10.0 mi SSE 3.5 mph - N/A   Clear
7:53 PM 70.0 °F 63.0 °F 78% 30.04 in 10.0 mi SSE 3.5 mph - N/A   Mostly Cloudy
8:53 PM 68.0 °F 63.0 °F 84% 30.05 in 10.0 mi Calm Calm - N/A   Clear
9:53 PM 66.0 °F 63.0 °F 90% 30.05 in 10.0 mi Calm Calm - N/A   Clear
10:53 PM 69.1 °F 64.0 °F 84% 30.06 in 10.0 mi Calm Calm - N/A   Overcast
11:53 PM 64.0 °F 62.1 °F 93% 30.06 in 10.0 mi Calm Calm - N/A   Scattered Clouds